Regional Weather Roundup
Issued by NWS

Home | Current Version | Previous Version | Graphics & Text | Print | Product List | Glossary On
Versions: 1 2 3 4 5 6 7 8 9 10 11 12 13 14 15 16 17 18 19 20 21 22 23 24 25 26 27 28 29 30 31 32 33 34 35 36 37 38 39 40 41 42 43 44 45 46 47 48 49 50
000
ASUS43 KFSD 240602
RWRSD

WEATHER ROUNDUP FOR SOUTH DAKOTA
NATIONAL WEATHER SERVICE SIOUX FALLS SD
1200 AM CST FRI NOV 24 2017

NOTE: "FAIR" INDICATES FEW OR NO CLOUDS BELOW 12,000 FEET WITH NO
SIGNIFICANT WEATHER AND/OR OBSTRUCTIONS TO VISIBILITY.


SDZ001>005-009-010-012>017-240700-
NORTHWEST AND NORTH CENTRAL SOUTH DAKOTA

CITY           SKY/WX    TMP DP  RH WIND       PRES   REMARKS
FAITH            N/A     53  36  52 SW15      29.53F
MOBRIDGE       CLEAR     54  37  52 CALM      29.45F
$$

SDZ012>016-024>037-041>051-057-063-072>074-240700-
SOUTHWEST AND SOUTH CENTRAL SOUTH DAKOTA

CITY           SKY/WX    TMP DP  RH WIND       PRES   REMARKS
RAPID CTY ARPT CLEAR     61  34  36 W12       29.61F
PIERRE         CLEAR     51  39  63 W12       29.52F
CUSTER         CLEAR     46  32  58 W5        29.74F
ELLSWORTH AFB  CLEAR     59  34  39 W9        29.60F
PHILIP         CLEAR     48  37  65 W12       29.57F
PINE RIDGE     CLEAR     44  35  70 S3        29.70F
SPEARFISH      FAIR      61  32  33 SW16      29.64S
WINNER         FAIR      52  39  61 SW10      29.58F
$$

SDZ004>011-016>023-039-040-240700-
NORTHEAST SOUTH DAKOTA

CITY           SKY/WX    TMP DP  RH WIND       PRES   REMARKS
ABERDEEN       CLEAR     36  34  92 S8        29.46F
WATERTOWN      CLEAR     42  37  82 S7        29.50F
BROOKINGS      CLEAR     45  38  76 S10       29.54F
SISSETON         N/A     55  40  56 SW17      29.42F
$$

SDZ017-020-022-023-036>040-048>070-240700-
SOUTHEAST SOUTH DAKOTA

CITY           SKY/WX    TMP DP  RH WIND       PRES   REMARKS
SIOUX FALLS    CLEAR     52  41  66 SW9       29.58F
HURON          CLEAR     47  39  74 S9        29.50F
CHAMBERLAIN    CLEAR     50  40  68 CALM      29.55F
MITCHELL       CLEAR     53  40  61 S9        29.54F
YANKTON        CLEAR     58  42  55 SW14      29.60F
$$

ABBREVIATIONS USED IN REMARKS
   TC - TEMPERATURE IN CELSIUS
  WCI - WIND CHILL INDEX
   HX - HEAT INDEX
  VSB - VISIBILITY




USA.gov is the U.S. government's official web portal to all federal, state and local government web resources and services.